sat.trackr.live / text

‹ back to catalog

STARLINK-32609

NORAD 61929 · 2024-207T

PAYLOAD ACTIVE UNKNOWN

§ Identity

Operator
Country
US
Launch date
2024-11-11
Launch site
AFETR
Launch vehicle
Mass (kg)
RCS (m²)

Purposes: comms

External: N2YO · Heavens-Above · Gunter

§ Orbital elements

Epoch: 2026-09-21T00:02:30.795648Z

Period
94.27 min
Inclination
43.0056°
Eccentricity
0.0002799
Mean motion
15.27564715 rev/d
Perigee alt
481.2 km
Apogee alt
485.0 km
Semi-major
6,861.2 km
B*
3.2479e-4
RAAN
258.6303°
Arg perigee
294.0911°
Mean anomaly
65.9648°
Rev number
10,459

§ Raw data

STARLINK-326091 61929U 24207T   26264.00174532  .00008682  00000+0  32479-3 0  99952 61929  43.0056 258.6303 0002799 294.0911  65.9648 15.27564715104597

JSON: /api/v1/satellites/61929 · /tle

For live sub-satellite position, see the globe view (requires WebGL).

§ Visibility from observer

Set your observer location to see the next 7 days of passes ≥ 10°. The values pass through the URL so the page stays shareable.

No JS? Fill the form by hand. The geolocation button needs JavaScript.